Regional Weather Roundup
Issued by NWS

Home | Current Version | Previous Version | Text Only | Print | Product List | Glossary Off
Versions: 1 2 3 4 5 6 7 8 9 10 11 12 13 14 15 16 17 18 19 20 21 22 23 24 25 26 27

000
ASUS45 KBOU 211310
RWRCO

WEATHER ROUNDUP FOR COLORADO
NATIONAL WEATHER SERVICE DENVER/BOULDER CO
600 AM MST TUE NOV 21 2017

NOTE: "FAIR" INDICATES FEW OR NO CLOUDS BELOW 12000 FEET WITH NO
SIGNIFICANT WEATHER AND/OR OBSTRUCTIONS TO VISIBILITY.

COZ001>005-013-030-031-211400-
...NORTHWEST COLORADO...

CITY           SKY/WX    TMP DP  RH WIND       PRES   REMARKS
CRAIG          CLOUDY    35  30  82 CALM      30.23R
HAYDEN         CLOUDY    34  31  88 E10       30.24R WCI  26
MEEKER         MOCLDY    37  30  75 W3        30.24R
RABBIT EARS PA SNOW      27  27 100 W14G20    30.23R VSB 1/2 WCI  15
STEAMBOAT SPGS CLOUDY    31  31 100 W3        30.23R
WALDEN         CLOUDY    34  30  86 SW7       30.21R WCI  28
$$

COZ006>008-011-211400-
...WEST CENTRAL VALLEYS...

CITY           SKY/WX    TMP DP  RH WIND       PRES   REMARKS
GRAND JUNCTION CLOUDY    35  21  56 CALM      30.30R
MONTROSE       MOCLDY    33  27  78 CALM      30.33R
EAGLE          CLOUDY    35  28  75 NW12      30.29R WCI  27
RIFLE          CLOUDY    33  29  85 E6        30.33R WCI  28
DELTA          MOCLDY    34  22  62 CALM      30.32R
NUCLA          FAIR      32  14  47 CALM      30.32R
$$

COZ017>023-064>068-211400-
...SOUTHWEST COLORADO...

CITY           SKY/WX    TMP DP  RH WIND       PRES   REMARKS
DURANGO        FAIR      24  15  68 E8        30.22R WCI  15
CORTEZ         FAIR      28  15  58 E9        30.25R WCI  19
PAGOSA SPRINGS FAIR      25  16  69 CALM      30.24R
TELLURIDE      CLOUDY    37  17  43 CALM      30.36R
WOLF CREEK PAS FAIR      28  21  74 NW9G16    30.37S WCI  20
$$

COZ009-010-012-014-032>034-037-058>063-211400-
...CENTRAL COLORADO...

CITY           SKY/WX    TMP DP  RH WIND       PRES   REMARKS
ASPEN          CLOUDY    29  28  96 CALM      30.29F
BUENA VISTA    FAIR      36  26  67 NW15G22   30.23S
COPPER MTN     LGT SNOW  28  25  86 MISG      30.22F VSB 3/4
BERTHOUD PASS  HVY SNOW  21  10  63 MISG      30.15F VSB 1/4
COTTONWOOD PAS FAIR      34  30  86 NW14G25   30.24S HAZE    WCI  24
GUNNISON       FAIR      26  22  84 S3        30.33R
KREMMLING      CLOUDY    37  32  81 SW14G22   30.22R
LEADVILLE      CLOUDY    27  21  78 N7        30.25S WCI  19
MONARCH PASS   LGT SNOW  21  19  93 W30       30.43R WCI   3
SALIDA         FAIR      40  25  54 NW8       30.30R
SUNLIGHT       CLOUDY    27  27 100 W12G21    30.35S FOG     WCI  16
WILKERSON PASS MOCLDY    25  21  86 NW14G24   30.26R WCI  13
$$

COZ069>075-211400-
...SAN LUIS VALLEY/SANGRE DE CRISTO MOUNTAINS...

CITY           SKY/WX    TMP DP  RH WIND       PRES   REMARKS
ALAMOSA        FAIR      23  11  60 SW7       30.22R WCI  15
DEL NORTE      FAIR      30  13  49 N3        30.23R
LA VETA PASS   FAIR      32  14  47 MISG        N/A
SAGUACHE       FAIR      41  21  45 N18G25    30.24R
$$

COZ035-036-038>040-211400-
...NORTHERN COLORADO FRONT RANGE...

CITY           SKY/WX    TMP DP  RH WIND       PRES   REMARKS
DENVER INTL AP LGT RAIN  48  34  58 NW20G28   30.10R
DMNS CITY PARK   N/A     51  26  37 NE7G14    30.10R
AURORA         MOCLDY    45  25  45 N6        30.10R
FRONT RANGE AP CLOUDY    47  28  47 N8        30.12R
ERIE MUNI ARPT CLOUDY    48  26  42 NE3       30.13R
BOULDER MUN AP FAIR      50  27  40 CALM      30.07R
CENTENNIAL     MOCLDY    50  28  42 N18       30.09R
BROOMFIELD     MOCLDY    50  27  40 NW15G21   30.10R
FORT COLLINS   LGT RAIN  48  36  63 N21       30.10R
LONGMONT       MOCLDY    44  29  55 NE3       30.10R
$$

COZ041-046-047-076>085-087-088-211400-
...PIKES PEAK/PALMER DIVIDE AND SOUTHERN FOOTHILLS...

CITY           SKY/WX    TMP DP  RH WIND       PRES   REMARKS
COLO. SPRINGS  MOCLDY    50  25  37 NW14      30.11R
A. F. ACADEMY  MOCLDY    46  24  42 NW8       30.11R
SCHRIEVER AFB  FAIR      46  22  38 NW7       30.10R
CHEYENNE MTN   FAIR      45  20  37 NW7       30.07R
ELLICOTT         N/A    N/A N/A N/A N5        30.09R
FALCON         MOCLDY    44  22  41 NW10      30.13R
FORT CARSON    FAIR      41  13  31 N3        30.08R
LIMON          LGT RAIN  46  34  62 N24G31    30.10R
MONUMENT HILL  CLOUDY    39  25  56 NW5       30.14R
CANON CITY     FAIR      52  28  40 W26       30.04S
WALSENBURG     FAIR      45  12  26 SW3       30.10R
TRINIDAD       FAIR      44  17  33 NW12      30.06R
$$

COZ042>045-048>051-090-091-211400-
...NORTHEAST COLORADO...

CITY           SKY/WX    TMP DP  RH WIND       PRES   REMARKS
GREELEY ARPT   FAIR      47  34  60 N23       30.10R
AKRON          FAIR      38  23  55 N14       30.11R
BURLINGTON     CLOUDY    51  28  41 N20G30    30.06R
WRAY           NOT AVBL
YUMA           FAIR      39  27  60 N21       30.10R
STERLING       FAIR      36  27  69 N9        30.14R
HOLYOKE        FAIR      37  28  70 NE16      30.14R
FORT MORGAN    FAIR      45  28  52 N17       30.11R
$$

COZ086-089-092>099-211400-
...SOUTHEAST COLORADO...

CITY           SKY/WX    TMP DP  RH WIND       PRES   REMARKS
PUEBLO         FAIR      40  24  53 NW5       30.05R
LA JUNTA       MOCLDY    38  20  48 W5        30.04R
LAMAR          FAIR      33  18  53 SW3       30.03R
SPRINGFIELD      N/A     35  19  52 NW9       30.01R WCI  28
$$




USA.gov is the U.S. government's official web portal to all federal, state and local government web resources and services.